Temp
19 19 19 18 18 18 18 17 17 17 17 17 17 17 17 17 17 17 17 17 17 17 17 17 17 17 17 17 17 16 16 16 16 15 15 15 15 16 16 16 16 16
19 19 19 18 18 18 18 18 18 18 17 17 17 17 17 17 17 17 17 17 17 17 17 17 17 17 17 17 17 16 16 16 16 16 16 16 16 16 16 16 16 16
19 19 19 18 18 18 18 18 18 17 17 17 17 17 17 17 17 17 17 17 17 17 17 17 17 17 16 16 16 16 16 16 16 16 16 16 16 16 16 16 16 16
19 19 19 19 19 18 18 18 17 17 17 17 17 17 17 17 17 17 17 17 17 17 17 16 16 16 16 16 16 16 16 16 16 16 16 16 16 16 16 16 16 16
18 18 19 18 19 18 18 18 17 17 17 17 17 17 17 17 16 16 17 17 17 16 16 16 16 16 16 16 16 16 16 16 16 16 16 16 16 16 16 16 16 16
18 18 18 18 19 19 18 18 18 18 17 17 17 17 17 17 16 16 17 17 16 16 16 16 16 16 16 16 16 16 16 16 16 16 17 17 17 17 17 17 17 17
18 18 19 19 19 19 18 18 18 18 18 17 17 17 17 17 16 16 16 16 16 16 16 16 16 16 16 16 16 16 16 16 16 17 17 17 17 17 18 18 17 17
18 18 19 19 19 19 18 18 18 18 17 17 17 17 17 16 16 16 16 16 16 16 16 16 16 16 16 16 16 16 16 16 16 17 18 18 17 18 18 18 18 18
18 18 19 19 19 19 18 18 18 18 17 17 17 17 17 16 16 16 16 16 16 16 16 16 16 16 16 16 16 16 17 17 17 17 17 18 18 18 18 18 18 18
18 18 19 19 19 19 19 18 18 18 18 17 17 17 16 16 16 16 16 16 16 16 16 16 16 16 16 16 16 16 17 17 17 17 17 17 18 18 18 18 18 18
18 18 19 19 19 19 19 18 18 18 18 17 17 17 16 16 16 16 16 16 16 16 16 16 16 16 16 16 16 16 16 17 17 17 17 17 17 17 17 18 18 18
16 17 18 19 19 19 19 18 18 18 18 17 17 17 16 16 16 16 16 16 16 16 16 16 16 16 16 16 16 16 16 16 16 17 17 17 17 17 17 17 17 18
15 16 17 18 18 18 18 18 18 17 17 17 17 16 16 16 16 16 16 16 16 16 16 16 16 16 16 16 16 16 16 16 16 16 16 16 17 17 17 17 17 17
15 15 16 16 17 17 17 17 17 17 17 16 16 16 16 16 16 16 16 16 16 16 16 16 16 16 16 16 16 16 16 16 16 16 16 16 16 16 16 16 17 17
15 15 15 15 15 15 16 16 16 16 16 16 16 16 16 16 16 16 16 16 16 16 16 16 16 16 16 16 16 16 16 16 16 16 16 16 16 16 16 16 16 17
14 14 14 14 14 15 15 16 16 16 16 16 16 16 16 16 16 16 16 16 16 16 16 16 16 16 16 16 16 16 16 16 16 16 16 16 16 16 16 16 16 16
13 13 14 14 14 15 15 15 15 15 15 15 15 15 16 16 16 16 16 16 16 16 16 17 16 16 16 16 16 16 16 16 16 16 16 16 16 16 16 16 16 16
12 13 13 13 14 14 14 14 14 15 15 15 15 15 15 15 16 16 16 16 16 16 16 16 16 16 16 16 16 16 16 16 16 16 17 17 17 17 17 17 17 17
11 11 12 12 12 12 13 13 13 13 13 14 14 14 14 15 15 15 15 15 15 15 16 15 15 15 15 16 16 16 16 16 16 16 16 16 17 17 17 17 17 17
10 10 10 10 10 11 11 12 12 12 12 13 13 13 14 14 14 14 14 14 14 14 14 14 14 14 15 15 15 15 15 15 15 16 16 16 16 16 16 16 16 16
9 9 9 9 9 10 10 10 11 11 11 12 12 12 13 13 13 13 13 13 13 13 13 13 13 13 14 14 14 15 15 15 15 15 15 15 15 15 16 16 16 16
8 8 8 8 9 9 9 9 10 10 10 11 11 11 12 12 12 12 12 13 13 13 13 13 13 13 13 14 14 14 14 14 15 15 15 15 15 15 15 15 15 15
8 8 8 8 8 8 8 8 9 9 9 10 11 11 11 11 11 11 11 12 12 12 12 12 12 12 13 13 13 13 13 14 14 14 14 14 15 15 15 15 15 14
8 8 8 7 8 8 8 8 8 8 8 9 9 10 10 10 10 10 11 11 11 11 11 11 11 11 12 12 12 13 13 13 13 13 13 14 14 14 14 14 14 14
8 8 7 7 7 8 8 8 7 7 8 8 8 9 9 9 9 9 10 10 10 10 10 10 10 10 11 11 11 12 12 12 12 13 13 13 13 13 14 14 14 14
7 7 7 7 7 7 8 7 6 6 7 7 7 8 8 8 9 9 9 9 9 9 9 10 10 10 10 10 10 11 11 11 11 11 12 12 12 12 13 13 14 14
Height
810 812 814 817 819 821 823 824 826 827 827 828 829 830 831 832 832 833 834 834 835 836 837 837 838 839 839 840 841 842 842 843 844 845 845 846 847 847 848 850 851 853
809 812 814 816 818 820 822 824 825 826 827 828 828 829 830 831 832 833 834 834 835 836 836 837 838 838 839 839 840 841 842 842 843 844 845 845 846 847 848 849 851 852
809 811 813 815 817 820 822 824 825 826 827 828 828 830 831 831 832 833 834 834 835 836 836 837 838 838 839 839 840 841 841 842 843 844 845 845 846 847 848 849 850 852
808 810 812 815 817 819 821 823 825 826 827 828 829 830 831 832 833 833 834 835 835 836 836 837 837 838 838 839 840 840 841 842 843 844 844 845 845 846 847 849 850 851
808 810 812 815 817 819 821 822 824 825 826 828 829 830 832 833 834 834 835 835 835 836 836 837 837 837 838 839 840 841 842 842 843 844 844 845 845 846 847 848 849 851
809 811 813 815 816 818 820 821 823 825 826 827 828 830 831 832 834 834 835 835 836 836 837 837 837 838 838 839 840 841 842 843 844 844 844 845 845 846 847 848 849 850
808 811 813 814 815 817 819 821 823 825 826 827 828 829 831 832 833 834 835 836 836 837 837 838 838 838 839 840 840 841 842 843 844 844 844 844 845 846 847 848 849 850
807 810 812 814 815 816 819 821 823 824 825 826 828 829 830 831 832 834 835 836 836 837 838 838 838 839 839 840 840 841 842 843 843 844 844 844 845 846 847 848 849 850
806 809 811 813 814 816 818 820 822 824 825 826 827 829 830 831 832 833 834 835 836 837 838 838 839 839 839 840 840 841 842 843 844 844 845 845 846 846 847 848 849 850
805 807 809 812 814 815 817 819 821 822 824 826 827 829 830 831 831 832 833 835 836 837 838 839 839 839 840 840 840 841 842 843 844 845 845 846 846 847 848 849 850 851
805 807 809 811 813 815 817 819 820 821 823 825 827 828 830 831 832 832 833 834 835 837 838 839 839 839 840 840 840 841 842 843 844 845 846 846 847 848 849 850 851 852
807 808 809 812 814 815 817 818 819 821 823 824 826 828 829 831 832 833 833 834 835 836 838 838 839 839 840 840 841 841 842 843 844 845 846 847 848 848 849 850 851 852
809 810 810 812 814 816 817 818 819 821 823 825 826 828 829 831 832 833 834 834 835 836 837 838 839 839 840 840 841 841 842 843 844 845 846 847 848 849 850 850 851 852
808 811 812 813 815 817 817 817 819 821 823 825 826 828 829 831 832 833 834 834 835 836 837 837 838 839 839 840 840 841 842 843 844 845 846 847 848 849 850 851 852 853
806 810 812 815 817 818 818 818 820 822 824 825 826 827 829 831 832 833 833 834 835 835 836 837 837 838 838 839 840 840 841 842 843 844 845 846 848 849 850 851 852 853
805 808 812 815 817 818 819 819 821 823 824 825 826 827 829 830 831 832 833 834 834 835 835 836 837 837 838 838 839 839 840 841 842 843 844 845 847 848 849 851 852 853
807 809 813 815 817 818 820 820 821 823 824 825 826 827 828 830 830 831 832 833 833 834 834 835 836 836 837 837 838 838 839 840 841 842 843 844 845 846 848 849 850 852
808 810 813 816 817 819 821 821 822 823 824 825 826 827 828 829 830 830 831 832 832 833 834 834 835 835 836 837 837 838 838 839 840 841 841 843 844 845 846 847 848 850
809 811 814 816 818 820 821 822 822 823 824 826 827 828 828 829 829 830 831 831 831 832 833 833 833 834 835 835 836 836 837 838 839 839 840 841 842 843 844 845 846 848
812 813 816 818 820 821 821 822 823 824 826 827 828 829 829 829 830 830 830 831 831 832 832 832 832 833 833 834 835 835 836 837 837 838 838 839 840 842 843 844 845 846
816 817 819 821 822 822 822 824 825 827 828 830 830 831 831 830 830 830 830 831 831 832 831 832 832 832 833 833 834 835 835 836 836 836 837 838 839 840 841 842 843 843
820 820 821 823 824 824 825 826 827 829 831 832 833 832 832 832 832 832 831 831 831 832 831 831 832 832 832 832 833 834 834 834 835 835 836 836 837 838 839 839 840 841
824 824 824 826 826 826 827 828 830 831 833 833 833 833 833 833 833 833 833 833 833 832 832 832 832 832 832 832 832 833 833 833 834 834 835 835 836 837 837 838 838 839
827 826 827 829 829 829 829 830 831 833 834 833 833 833 834 834 835 835 834 834 834 834 834 833 833 833 832 832 832 832 833 833 833 833 834 834 834 835 835 835 836 836
828 828 829 830 831 830 830 831 832 833 834 834 833 834 835 835 835 835 835 835 835 835 835 834 834 834 833 833 832 832 832 832 832 832 833 833 833 833 833 833 833 834
832 831 831 832 832 832 831 833 834 835 836 835 834 835 836 835 835 835 835 836 835 835 835 834 834 834 834 833 833 832 832 832 832 832 832 832 832 832 831 831 831 832
Wind_Speed
19 20 22 22 20 18 19 19 18 17 16 16 15 13 12 11 10 9 6 4 5 4 4 6 9 8 7 7 7 8 9 9 9 8 8 9 9 10 12 13 16 15
21 22 23 22 20 19 19 19 18 17 16 15 14 13 13 12 11 9 7 5 4 4 4 5 7 7 7 7 7 7 8 9 9 9 8 8 8 9 11 12 14 15
24 25 25 23 21 21 20 18 17 16 16 16 14 12 11 10 10 9 7 6 4 3 4 4 4 5 5 6 7 8 9 9 9 9 8 8 8 9 11 11 12 14
26 27 26 23 22 20 19 19 18 17 16 15 13 10 9 9 9 9 7 5 4 4 4 3 3 4 4 5 7 8 9 9 8 8 8 9 9 10 11 12 12 13
25 26 24 23 21 19 19 20 19 17 15 13 11 9 8 8 8 8 6 4 4 5 4 2 2 3 4 5 6 7 8 8 7 7 8 9 9 10 11 12 12 13
23 24 23 21 19 18 18 19 17 15 13 11 9 8 7 7 7 6 5 4 5 6 4 2 2 3 4 4 4 5 6 7 7 7 7 9 9 10 10 11 12 14
23 22 22 20 17 16 16 16 13 12 11 9 8 7 7 7 7 7 6 5 6 7 5 2 2 4 3 3 4 4 5 6 6 6 7 9 11 11 10 10 10 12
22 21 20 17 16 14 13 12 11 10 9 8 7 7 7 7 7 7 6 5 6 7 6 4 2 3 4 3 3 4 5 6 6 7 8 10 12 12 10 9 8 9
22 20 19 16 15 13 11 10 9 8 7 7 7 7 7 7 7 6 6 5 6 7 7 5 3 3 3 3 3 4 5 5 6 8 9 10 12 11 9 8 7 6
21 20 19 17 15 13 11 10 9 7 7 7 8 7 7 6 6 6 7 6 6 7 8 6 4 3 2 3 4 4 5 4 5 8 9 10 10 9 8 7 7 7
19 20 18 17 15 13 12 10 8 7 7 8 8 6 5 5 6 6 6 6 7 7 7 7 6 4 3 3 4 5 5 5 5 7 9 9 9 8 8 8 8 9
14 17 18 16 14 14 13 11 8 7 8 8 7 5 5 5 5 5 5 6 6 6 7 7 6 6 5 4 5 5 6 6 7 8 9 10 9 8 8 9 10 10
12 12 14 14 13 13 13 11 9 8 8 8 6 5 6 6 6 5 4 5 5 6 6 6 6 6 5 5 5 6 7 7 8 9 10 10 9 8 8 9 10 11
13 8 8 9 10 11 11 10 10 9 8 7 5 5 6 6 6 5 4 4 4 5 6 6 6 6 5 5 5 6 7 8 8 9 10 10 9 9 9 9 9 9
16 10 8 7 8 9 10 10 9 9 8 6 5 5 6 7 7 6 6 6 5 5 6 6 6 6 5 5 5 5 6 6 6 7 9 11 10 9 9 9 9 9
15 13 11 10 9 9 8 8 8 7 7 6 5 5 6 8 9 8 7 7 7 7 7 6 6 6 6 5 5 5 4 5 5 5 7 10 10 10 10 10 10 10
13 12 10 8 7 6 6 6 6 6 5 5 5 6 7 9 10 10 9 9 8 8 7 7 7 7 7 7 6 6 6 6 7 7 7 9 11 12 11 11 11 12
14 11 10 8 6 6 5 5 5 4 4 4 4 5 6 8 9 10 9 8 8 8 7 7 8 9 9 9 9 8 8 9 9 10 10 10 11 13 14 13 13 13
18 16 15 13 11 10 9 8 7 7 7 5 5 4 4 5 5 5 4 3 4 4 4 4 4 6 8 9 10 10 11 11 11 12 12 12 13 14 15 16 16 16
23 22 21 18 16 15 14 13 12 11 10 9 7 6 5 6 5 4 3 3 2 3 3 2 2 1 3 5 6 8 9 11 12 13 14 15 16 16 17 18 19 19
28 27 25 23 22 21 21 20 19 17 15 12 10 9 8 8 8 6 5 4 4 5 5 4 4 2 1 2 3 5 6 8 10 11 13 14 16 18 19 20 21 22
27 26 26 25 23 23 24 24 22 21 19 16 14 13 12 11 11 10 9 8 7 6 5 5 5 4 3 3 4 5 6 7 9 10 11 12 14 15 17 19 21 22
22 23 23 22 21 21 22 22 21 20 19 17 16 15 14 14 13 13 12 11 10 9 8 7 7 6 5 4 5 5 6 8 9 10 11 12 14 14 15 16 17 19
21 20 19 18 18 18 18 18 18 18 17 17 17 16 15 15 13 12 12 12 12 11 10 9 9 8 6 5 5 6 6 7 9 10 11 13 15 16 16 16 17 17
20 20 19 18 17 16 14 14 14 13 13 13 14 15 15 15 14 13 12 12 11 11 9 9 8 8 8 7 6 6 6 7 8 9 10 11 13 15 17 18 18 19
18 18 18 17 16 14 12 11 11 11 11 11 10 10 10 11 13 13 13 12 12 11 10 9 9 8 8 8 8 8 8 8 9 10 11 11 13 14 16 17 18 19
Wind_Direction
190 186 186 183 181 182 182 181 179 177 176 174 171 168 166 169 170 172 175 177 182 180 175 178 179 179 179 183 187 186 187 190 190 192 196 196 198 201 201 202 206 210
190 188 188 184 184 187 187 186 184 181 177 174 170 165 165 169 171 172 170 173 181 176 173 176 180 186 190 195 200 195 191 191 192 192 193 193 192 191 192 195 204 211
190 189 190 188 187 188 189 187 184 180 173 169 166 163 165 168 169 167 163 168 182 186 180 178 182 187 186 190 195 194 193 194 195 196 194 191 191 190 190 196 204 208
191 192 191 189 188 187 187 185 181 177 172 167 165 163 166 169 170 169 164 169 192 196 180 178 200 200 178 173 180 182 186 190 193 195 192 188 188 191 192 197 200 199
190 190 190 188 186 185 185 184 181 178 173 167 163 162 165 169 173 175 172 177 193 185 170 172 211 203 182 168 167 173 178 181 186 190 190 187 184 185 189 191 191 191
187 187 188 187 186 186 186 186 185 181 176 169 165 164 165 166 174 183 184 191 188 175 163 145 155 171 184 185 173 174 177 180 187 189 191 192 185 180 184 188 190 192
186 187 188 189 189 190 190 189 188 184 177 171 167 167 169 169 177 186 192 199 189 174 166 144 123 140 156 174 176 175 177 181 188 187 186 188 182 175 177 183 191 196
187 187 190 193 192 191 191 190 188 185 177 172 173 175 175 175 180 187 196 203 191 178 172 159 131 132 135 143 158 161 165 171 176 177 177 176 173 171 171 173 178 187
188 188 190 195 194 189 190 192 190 186 180 177 181 183 180 181 188 193 194 191 183 180 180 176 163 151 144 149 159 164 163 160 165 174 174 170 169 169 170 173 173 177
189 187 190 194 193 191 194 197 194 190 187 185 185 186 188 188 190 193 191 186 182 181 185 189 184 179 180 177 179 187 187 179 176 182 183 179 176 177 180 184 189 192
187 185 191 193 192 197 204 203 200 197 193 189 189 193 199 196 190 192 195 194 192 191 196 202 202 201 204 194 188 195 202 208 211 205 201 196 194 196 198 203 207 204
181 182 189 193 195 202 208 205 200 195 191 189 194 204 203 197 195 200 204 199 195 196 202 208 211 208 207 202 200 207 211 212 216 217 213 207 206 212 218 219 217 211
177 176 179 187 196 200 200 196 186 182 186 189 199 212 207 200 200 201 205 202 200 202 207 212 212 208 211 216 217 220 219 215 215 217 214 212 215 219 218 218 217 215
175 177 177 182 191 191 184 175 169 172 183 191 204 215 214 210 206 203 208 212 215 217 218 221 219 219 227 236 235 232 228 225 225 224 220 220 222 217 209 208 214 219
180 193 197 182 173 168 160 155 158 170 184 194 209 216 218 218 215 218 225 231 241 245 242 241 239 237 238 246 259 260 247 238 237 233 228 228 228 222 214 213 215 220
170 175 174 161 152 150 150 151 158 175 187 197 213 221 223 226 226 232 238 242 255 264 264 262 258 250 242 244 264 276 267 259 264 264 246 238 239 239 236 237 237 237
142 149 153 153 152 154 158 162 171 185 192 205 224 232 233 234 237 241 245 250 260 265 267 265 258 253 249 250 260 269 270 271 278 283 273 257 252 250 250 252 252 252
117 124 133 142 145 142 142 142 150 161 166 187 210 223 230 232 235 241 250 259 262 260 260 262 260 258 259 261 265 266 265 267 269 272 273 267 260 256 255 256 255 254
101 106 108 113 117 119 121 120 118 113 111 120 136 151 173 189 202 217 230 248 252 251 262 275 274 270 268 268 270 270 268 269 269 268 269 267 265 262 261 260 259 257
87 91 90 91 95 98 98 96 93 89 87 92 103 115 123 121 124 133 128 121 115 108 101 87 62 315 277 270 271 272 272 273 273 273 271 269 268 267 266 265 264 264
77 81 81 79 81 84 82 78 77 75 72 74 80 86 88 87 87 92 98 97 87 90 99 92 70 37 340 301 285 281 277 274 274 275 276 275 274 273 272 271 270 270
69 72 72 69 71 74 71 65 64 64 61 61 65 70 72 71 69 69 71 75 76 78 84 77 58 33 3 330 308 298 289 282 279 279 279 278 278 279 280 280 279 279
66 67 67 64 63 65 62 57 55 54 51 50 51 54 57 57 56 57 59 62 67 69 67 66 58 39 16 351 330 318 306 298 294 291 287 283 279 278 280 282 282 284
64 63 64 62 59 56 52 47 47 47 44 43 44 43 44 46 46 50 52 52 56 59 57 59 59 49 32 11 355 341 325 315 308 302 297 291 285 280 278 279 278 278
63 61 60 58 54 48 41 31 30 32 28 29 36 36 35 35 34 35 37 36 39 41 40 42 46 43 34 21 7 355 341 329 322 314 308 300 292 286 282 280 277 275
66 66 64 61 56 50 41 24 14 8 359 355 360 2 3 9 13 17 20 19 18 17 14 14 15 16 18 13 1 353 345 337 331 326 320 312 304 299 294 289 284 281